Home > Weather > Sitka > Past weeks

Flag for USA Past Weather in Sitka, Alaska, USA — Yesterday and Last 2 Weeks

Now
55 °F

Passing clouds.


Feels Like: 55 °F
Forecast: 57 / 69 °F
Wind: No wind

Location: Sitka Airport

Current Time: Aug 27, 2016 at 2:19:04 AM

Latest Report: Aug 27, 2016 at 1:53 AM


Visibility: 10 mi

Pressure: 29.92 "Hg

Humidity: 93%

Dew Point: 53 °F

Location of SitkaLocation

Past Weather in Sitka — Graph

°F

Sitka Temperature Yesterday

Maximum temperature yesterday: 60 °F (at 2:53 PM)
Minimum temperature yesterday: 55 °F (at 10:53 PM)
Average temperature yesterday: 58 °F

High & Low Weather Summary for the Past Weeks

 TemperatureHumidityPressure
High64 °F (Aug 24, 3:53 PM)100% (Aug 12, 12:53 AM)30.61 "Hg (Aug 12, 12:53 AM)
Low50 °F (Aug 20, 6:53 AM)65% (Aug 21, 9:53 AM)29.85 "Hg (Aug 13, 6:53 PM)
Average58 °F91%30.18 "Hg
* Reported Aug 12 12:53 AM — Aug 27 12:53 AM, Sitka, Weather by CustomWeather, © 2016

Note: Actual official high and low records may vary slightly from our data, if they occured in-between our weather recording intervals... More about our weather records

Advertising

Sitka Weather History for the Previous 24 Hours

Scroll right to see more
 ConditionsComfort  
Time TempWeatherWind HumidityBarometerVisibility
12:53 AM
Sat, Aug 27
55 °FPassing clouds.5 mph90%29.92 "Hg10 mi
11:53 PM
Fri, Aug 26
55 °FPassing clouds.7 mph93%29.93 "Hg10 mi
10:53 PM55 °FPassing clouds.3 mph93%29.94 "Hg10 mi
10:00 PM57 °FClear.14 mph90%29.94 "Hg10 mi
9:53 PM58 °FPassing clouds.14 mph87%29.94 "Hg10 mi
8:53 PM58 °FPartly sunny.14 mph87%29.94 "Hg10 mi
7:53 PM59 °FScattered clouds.12 mph84%29.94 "Hg10 mi
7:00 PM59 °FScattered clouds.8 mph87%29.94 "Hg10 mi
6:53 PM59 °FPartly sunny.9 mph87%29.94 "Hg10 mi
5:53 PM60 °FPartly sunny.9 mph83%29.94 "Hg10 mi
4:53 PM60 °FPartly sunny.10 mph86%29.95 "Hg10 mi
3:53 PM60 °FBroken clouds.10 mph86%29.96 "Hg10 mi
2:53 PM60 °FBroken clouds.14 mph86%29.96 "Hg10 mi
2:01 PM59 °FMostly cloudy.13 mph90%29.97 "Hg10 mi
1:53 PM59 °FOvercast.13 mph90%29.97 "Hg10 mi
12:53 PM58 °FMostly cloudy.10 mph93%29.96 "Hg10 mi
11:53 AM58 °FLight rain. Fog.20 mph93%29.96 "Hg3 mi
10:53 AM58 °FMostly cloudy.16 mph93%29.98 "Hg8 mi
9:53 AM58 °FLight rain. More clouds than sun.13 mph93%29.98 "Hg8 mi
9:03 AM59 °FMostly cloudy.13 mph93%29.99 "Hg10 mi
7:53 AM58 °FMostly cloudy.20 mph97%30.01 "Hg7 mi
6:53 AM59 °FOvercast.9 mph96%30.01 "Hg7 mi
5:53 AM59 °FLight rain. Fog.14 mph96%30.02 "Hg4 mi
4:53 AM59 °FLight rain. Fog.15 mph96%30.06 "Hg2 mi
3:53 AM59 °FLight rain. Fog.12 mph96%30.09 "Hg3 mi
2:53 AM59 °FLight rain. Fog.8 mph96%30.13 "Hg3 mi
Weather by CustomWeather, © 2016

See weather overviewHow to use our weather pages